Location: Indian Springs
(36.5700°N, 115.6700°W)
Time: 15:31:16
(UTC-07:00)

Daily predictions for brighter satellites

Satellite Brightness Start Highest point End
(mag) Time Altitude Azimuth Time Altitude Azimuth Time Altitude Azimuth
NOSS 3-2 (A) 3.7 18:50:41 10° S 18:56:23 48° ESE 19:02:30 10° NE
ATLAS CENTAUR R/B 1.8 18:56:11 10° NNW 19:00:09 39° NE 19:03:49 10° SE
Abrixas rocket 3.6 18:57:23 10° WNW 19:00:31 37° SW 19:03:37 10° SSE
USA 238 DEB 4.2 18:54:15 10° SW 19:01:15 68° NW 19:08:17 10° NNE
USA 238 4.2 18:54:20 10° SW 19:01:21 69° NW 19:08:24 10° NNE
Atlas Centaur 2 3.6 18:55:07 10° W 19:03:25 54° S 19:11:07 10° ESE
SL-19 R/B 4.3 18:58:26 10° SSE 19:03:59 74° ENE 19:09:48 10° NNW
Cosmos 1844 4.5 18:59:54 10° NNW 19:05:22 57° WSW 19:10:46 10° S
Cosmos 1437 2.9 19:05:30 10° N 19:08:43 51° E 19:11:53 10° SSE
ALOS 3.7 19:05:52 10° ESE 19:08:59 18° ENE 19:12:09 10° NNE
ASTRO E2 3.7 19:06:44 10° WSW 19:10:25 34° S 19:13:54 11° ESE
FREGAT/IRIS 3.1 19:07:47 10° SE 19:10:41 39° ENE 19:13:37 10° N
Cosmos 1766 3.5 19:08:29 10° SSE 19:12:17 49° E 19:16:08 10° NNE
Spot 2 Rocket 3.8 19:13:38 10° SE 19:18:23 44° ENE 19:23:09 10° N
OAO 3 Rocket 3.4 19:15:14 10° WSW 19:19:55 60° SSE 19:23:54 15° E
Cosmos 2237 Rocket 3.4 19:14:35 10° SW 19:20:01 46° WNW 19:25:29 10° N
NOAA 12 4.0 19:16:37 10° SSE 19:21:50 74° ENE 19:27:06 10° N
Cosmos 2346 Rocket 4.5 19:16:43 10° N 19:22:49 87° W 19:28:51 10° S
Cosmos 2056 Rocket 3.6 19:17:25 10° NNW 19:22:51 68° ENE 19:28:14 10° SSE
Helios 1A 3.5 19:19:07 10° SE 19:22:59 38° ENE 19:26:52 10° N
COSMO-SKYMED 1 4.2 19:19:23 10° N 19:23:25 38° WNW 19:27:25 10° SW
SAR-Lupe-1 4.3 19:23:41 10° S 19:27:13 72° WSW 19:30:47 10° NNW
Cosmos 1953 2.9 19:25:28 10° SSE 19:29:04 33° E 19:32:41 10° NNE
ATLAS CENTAUR R/B 3.3 19:27:03 10° SW 19:31:26 88° SE 19:45:21 10° NE
ATLAS 5 CENTAUR R/B 1.9 19:27:00 10° SSW 19:31:33 51° ESE 19:36:26 10° NE
Cosmos 1371 Rocket 4.3 19:27:05 10° NNW 19:32:22 72° WSW 19:37:40 10° S
CZ-4C R/B 3.8 19:27:41 10° WSW 19:32:30 34° NW 19:37:51 10° NNE
Aureole 2 Rocket 3.1 19:28:19 10° SSW 19:32:42 79° WNW 19:37:04 10° NNE
ASTEX 1 4.3 19:28:53 10° NNE 19:32:59 26° E 19:37:01 10° SE
NOSS 3-2 (C) 3.4 19:27:21 10° SSW 19:33:19 72° ESE 19:39:46 10° NE
CENTAUR R/B 3.7 19:33:08 10° SE 19:36:16 17° ESE 19:36:16 17° ESE
SL-16 R/B 2.4 19:32:54 10° SSW 19:38:35 76° WNW 19:44:18 10° NNE
HJ-1C 3.3 19:41:03 10° SSE 19:44:23 87° ENE 19:47:46 10° N
Cosmos 1766 Rocket 3.6 19:40:52 10° N 19:45:11 56° E 19:49:26 10° SSE
Cosmos 1805 3.3 19:41:50 10° S 19:45:39 54° E 19:49:30 10° NNE
Cosmos 2034 Rocket 3.9 19:40:05 10° S 19:46:14 67° E 19:52:30 10° NNE
H-2A R/B 3.6 19:47:28 29° E 19:48:10 31° ENE 19:51:39 10° N
Cosmos 1464 Rocket 4.0 19:43:08 10° S 19:49:24 84° W 19:55:39 10° N
Meteor 1-29 3.0 19:48:35 10° N 19:52:07 83° WNW 19:55:35 10° SSW
Cosmos 724 4.3 19:49:38 10° SSW 19:55:25 62° ESE 20:01:23 10° NE
SL-8 R/B 4.2 19:51:37 10° SSW 19:56:03 39° SE 19:57:10 33° ESE
Cosmos 1378 4.2 19:55:05 10° NNW 19:58:40 47° W 20:02:15 10° SSW
Cosmos 1544 3.1 19:56:48 10° S 20:00:26 54° E 20:04:06 10° NNE
Cosmos 2278 Rocket 4.3 20:01:41 10° NW 20:06:20 27° WSW 20:10:59 10° SSW
Cosmos 1076 Rocket 3.9 20:02:40 10° NNW 20:06:57 63° W 20:11:14 10° S
Cosmos-2242 3.0 20:03:50 10° S 20:08:10 86° W 20:12:34 10° N
Cosmos 1758 3.6 20:05:48 10° SSW 20:09:50 69° W 20:13:56 10° N
Cosmos 2297 4.4 20:04:53 10° NNW 20:10:24 54° WSW 20:15:51 10° S
FENGYUN 3A 3.5 20:07:09 15° SSE 20:11:43 79° ENE 20:17:06 10° N
USA 215 4.1 20:05:30 10° NE 20:11:43 48° NW 20:17:55 10° WSW
Timation 1 Rocket 4.4 20:06:56 10° NNW 20:12:53 77° WSW 20:17:41 16° SSE
ERS-1 Rocket 4.3 20:14:41 23° NE 20:14:41 23° NE 20:17:31 10° NNE
Helios 1B rocket 3.9 20:09:51 10° N 20:13:41 38° WNW 20:17:29 10° SW
Cosmos 1452 Rocket 3.4 20:14:21 10° NNW 20:19:38 88° WSW 20:22:15 30° SSE
Cosmos 1500 Rocket 4.3 20:15:39 10° N 20:18:52 38° NE 20:18:52 38° NE
Cosmos 1408 Rocket 4.4 20:16:32 10° NNW 20:20:44 49° W 20:24:54 10° SSW
CZ-4B DEB 3.2 20:21:57 61° W 20:21:57 61° W 20:25:07 10° NNW
OAO 1 Rocket 4.4 20:16:46 10° WSW 20:22:07 71° S 20:23:07 56° ESE
Resurs 01 Rocket 3.1 20:18:18 10° SSW 20:22:24 37° W 20:26:33 10° NNW
SeaSat 1 2.3 20:18:20 10° NNE 20:23:18 82° ESE 20:28:13 10° SSW
Cosmos 1603 3.7 20:19:54 10° SSW 20:25:38 83° WNW 20:31:25 10° NNE
Cosmos 2369 Rocket 3.4 20:21:28 10° N 20:25:24 26° NE 20:25:24 26° NE
SEDSat Delta rocket 4.2 20:22:21 10° WSW 20:28:59 56° S 20:30:30 47° SE
Cosmos 1943 Rocket 4.3 20:34:04 10° NNE 20:35:24 13° NNE 20:35:24 13° NNE
ATLAS CENTAUR R/B 4.0 20:36:35 10° WNW 20:38:45 14° WSW 20:40:50 10° SW
Cosmos 1420 Rocket 3.9 20:38:18 10° NNW 20:43:37 84° ENE 20:43:37 84° ENE
Cosmos 1674 4.4 20:40:23 10° N 20:42:19 28° N 20:42:19 28° N
ALOS 3.4 20:43:08 19° SSW 20:46:06 40° W 20:50:30 10° NNW
Cosmos 1743 Rocket 4.1 20:43:17 10° NNW 20:47:38 54° W 20:47:52 54° WSW
BREEZE-M DEB (TANK) 4.4 20:33:41 10° NW 20:49:47 49° WSW 20:51:56 34° S
Atlas Centaur 2 3.8 20:45:21 10° W 20:52:39 34° SSW 20:54:18 31° S
OAO 3 Rocket 4.3 20:58:33 10° W 21:01:43 41° WSW 21:01:43 41° WSW
Envisat 4.4 21:10:28 31° N 21:10:28 31° N 21:13:03 10° N
Cosmos 1092 Rocket 4.3 21:02:49 10° NNW 21:08:55 60° W 21:10:19 48° SW
ATLAS 5 CENTAUR R/B 4.3 21:13:00 10° W 21:16:35 20° NW 21:20:23 10° N
Cosmos 1634 Rocket 4.5 21:18:19 41° SW 21:20:14 57° W 21:26:22 10° N
CENTAUR R/B 3.6 21:20:40 10° SW 21:34:48 - NNE 21:23:41 32° SW
Cosmos 2369 Rocket 4.4 22:05:08 10° NW 22:07:12 21° NW 22:07:12 21° NW
